Time,TemperatureF,DewpointF,PressureIn,WindDirection,WindDirectionDegrees,WindSpeedMPH,WindSpeedGustMPH,Humidity,HourlyPrecipIn,Conditions,Clouds,dailyrainin,SoftwareType,DateUTC
2013-04-19 00:03:00,54.0,52.0,30.13,East,95,0.0,0.0,92,0.00,,,0.00,weatherlink.com 1.10,2013-04-19 04:03:00,
2013-04-19 00:18:00,53.9,52.0,30.13,East,94,0.0,1.0,92,0.00,,,0.00,weatherlink.com 1.10,2013-04-19 04:18:00,
2013-04-19 00:33:00,53.7,52.0,30.12,East,94,0.0,1.0,92,0.00,,,0.00,weatherlink.com 1.10,2013-04-19 04:33:00,
2013-04-19 00:48:00,53.7,52.0,30.11,East,94,0.0,1.0,92,0.00,,,0.00,weatherlink.com 1.10,2013-04-19 04:48:00,
2013-04-19 01:03:00,54.0,52.0,30.10,WSW,242,0.0,1.0,93,0.00,,,0.00,weatherlink.com 1.10,2013-04-19 05:03:00,
2013-04-19 01:18:00,54.5,53.0,30.10,SE,133,0.0,2.0,94,0.00,,,0.00,weatherlink.com 1.10,2013-04-19 05:18:00,
2013-04-19 01:33:00,54.8,53.0,30.09,ESE,113,2.0,3.0,95,0.00,,,0.00,weatherlink.com 1.10,2013-04-19 05:33:00,
2013-04-19 01:48:00,54.8,53.0,30.09,East,101,0.0,1.0,95,0.00,,,0.00,weatherlink.com 1.10,2013-04-19 05:48:00,
2013-04-19 02:03:00,54.6,54.0,30.09,SE,142,0.0,1.0,96,0.00,,,0.00,weatherlink.com 1.10,2013-04-19 06:03:00,
2013-04-19 02:18:00,55.0,54.0,30.08,SE,139,0.0,1.0,96,0.00,,,0.00,weatherlink.com 1.10,2013-04-19 06:18:00,
2013-04-19 02:33:00,55.0,54.0,30.07,ESE,109,0.0,2.0,96,0.00,,,0.00,weatherlink.com 1.10,2013-04-19 06:33:00,
2013-04-19 02:48:00,55.1,54.0,30.07,ENE,69,0.0,2.0,97,0.00,,,0.00,weatherlink.com 1.10,2013-04-19 06:48:00,
2013-04-19 03:03:00,55.1,54.0,30.06,East,84,0.0,2.0,97,0.00,,,0.00,weatherlink.com 1.10,2013-04-19 07:03:00,
2013-04-19 03:18:00,55.1,54.0,30.05,East,84,0.0,1.0,97,0.00,,,0.00,weatherlink.com 1.10,2013-04-19 07:18:00,
2013-04-19 03:33:00,55.1,54.0,30.03,ENE,68,0.0,2.0,97,0.00,,,0.00,weatherlink.com 1.10,2013-04-19 07:33:00,
2013-04-19 03:49:00,55.1,54.0,30.02,East,93,0.0,1.0,97,0.00,,,0.00,weatherlink.com 1.10,2013-04-19 07:49:00,
2013-04-19 04:04:00,55.3,55.0,30.01,East,82,3.0,4.0,97,0.00,,,0.00,weatherlink.com 1.10,2013-04-19 08:04:00,
2013-04-19 04:19:00,55.7,55.0,30.02,SE,142,0.0,3.0,97,0.00,,,0.00,weatherlink.com 1.10,2013-04-19 08:19:00,
2013-04-19 04:34:00,56.2,56.0,30.01,ESE,122,2.0,5.0,98,0.00,,,0.00,weatherlink.com 1.10,2013-04-19 08:34:00,
2013-04-19 04:49:00,56.7,56.0,30.01,ESE,113,2.0,6.0,97,0.00,,,0.00,weatherlink.com 1.10,2013-04-19 08:49:00,
2013-04-19 05:04:00,56.9,56.0,30.01,SSE,158,1.0,4.0,97,0.00,,,0.00,weatherlink.com 1.10,2013-04-19 09:04:00,
2013-04-19 05:19:00,57.0,56.0,30.01,SSW,203,0.0,4.0,96,0.00,,,0.00,weatherlink.com 1.10,2013-04-19 09:19:00,
2013-04-19 05:34:00,56.9,56.0,30.00,ESE,117,0.0,2.0,96,0.00,,,0.00,weatherlink.com 1.10,2013-04-19 09:34:00,
2013-04-19 05:49:00,57.0,56.0,30.00,ENE,76,0.0,2.0,96,0.00,,,0.00,weatherlink.com 1.10,2013-04-19 09:49:00,
2013-04-19 06:04:00,57.0,56.0,30.00,ESE,108,1.0,4.0,96,0.00,,,0.00,weatherlink.com 1.10,2013-04-19 10:04:00,
2013-04-19 06:19:00,57.3,56.0,29.99,ESE,107,0.0,4.0,96,0.00,,,0.00,weatherlink.com 1.10,2013-04-19 10:19:00,
2013-04-19 06:34:00,57.6,57.0,29.98,East,94,3.0,4.0,96,0.00,,,0.00,weatherlink.com 1.10,2013-04-19 10:34:00,
2013-04-19 06:50:00,58.4,57.0,29.99,East,88,4.0,6.0,96,0.00,,,0.00,weatherlink.com 1.10,2013-04-19 10:50:00,
2013-04-19 07:04:00,59.3,58.0,29.99,East,82,5.0,10.0,95,0.00,,,0.00,weatherlink.com 1.10,2013-04-19 11:04:00,
2013-04-19 07:19:00,59.4,58.0,30.00,ESE,115,0.0,7.0,95,0.00,,,0.00,weatherlink.com 1.10,2013-04-19 11:19:00,
2013-04-19 07:34:00,59.4,58.0,30.00,SE,130,4.0,7.0,95,0.00,,,0.00,weatherlink.com 1.10,2013-04-19 11:34:00,
2013-04-19 07:49:00,59.7,58.0,29.99,ENE,78,2.0,9.0,95,0.00,,,0.00,weatherlink.com 1.10,2013-04-19 11:49:00,
2013-04-19 08:04:00,60.2,59.0,29.98,East,81,5.0,9.0,94,0.00,,,0.00,weatherlink.com 1.10,2013-04-19 12:04:00,
2013-04-19 08:19:00,60.8,59.0,29.97,ENE,75,2.0,6.0,93,0.00,,,0.00,weatherlink.com 1.10,2013-04-19 12:19:00,
2013-04-19 08:34:00,61.3,59.0,29.97,ESE,118,2.0,10.0,92,0.00,,,0.00,weatherlink.com 1.10,2013-04-19 12:34:00,
2013-04-19 08:49:00,61.5,59.0,29.97,SSE,152,3.0,8.0,92,0.00,,,0.00,weatherlink.com 1.10,2013-04-19 12:49:00,
2013-04-19 09:04:00,61.6,59.0,29.97,East,101,5.0,12.0,91,0.00,,,0.00,weatherlink.com 1.10,2013-04-19 13:04:00,
2013-04-19 09:19:00,62.1,59.0,29.96,ESE,122,8.0,11.0,90,0.00,,,0.00,weatherlink.com 1.10,2013-04-19 13:19:00,
2013-04-19 09:34:00,62.7,60.0,29.96,East,97,5.0,8.0,89,0.00,,,0.00,weatherlink.com 1.10,2013-04-19 13:34:00,
2013-04-19 09:49:00,63.1,60.0,29.95,East,98,1.0,6.0,89,0.00,,,0.00,weatherlink.com 1.10,2013-04-19 13:49:00,
2013-04-19 10:04:00,63.7,60.0,29.94,East,84,2.0,6.0,88,0.00,,,0.00,weatherlink.com 1.10,2013-04-19 14:04:00,
2013-04-19 10:19:00,64.1,60.0,29.93,SE,134,1.0,7.0,87,0.00,,,0.00,weatherlink.com 1.10,2013-04-19 14:19:00,
2013-04-19 10:34:00,64.9,61.0,29.92,SE,139,6.0,12.0,86,0.00,,,0.00,weatherlink.com 1.10,2013-04-19 14:34:00,
2013-04-19 10:50:00,65.6,61.0,29.92,ESE,113,7.0,9.0,84,0.00,,,0.00,weatherlink.com 1.10,2013-04-19 14:50:00,
2013-04-19 11:05:00,66.4,61.0,29.91,ESE,104,6.0,11.0,82,0.00,,,0.00,weatherlink.com 1.10,2013-04-19 15:05:00,
2013-04-19 11:20:00,66.9,61.0,29.90,East,94,1.0,11.0,81,0.00,,,0.00,weatherlink.com 1.10,2013-04-19 15:20:00,
2013-04-19 11:35:00,67.0,61.0,29.90,SE,135,3.0,9.0,80,0.00,,,0.00,weatherlink.com 1.10,2013-04-19 15:35:00,
2013-04-19 11:50:00,68.0,61.0,29.89,SE,128,5.0,12.0,78,0.00,,,0.00,weatherlink.com 1.10,2013-04-19 15:50:00,
2013-04-19 12:05:00,68.6,61.0,29.88,East,86,3.0,6.0,76,0.00,,,0.00,weatherlink.com 1.10,2013-04-19 16:05:00,
2013-04-19 12:20:00,69.2,61.0,29.87,ENE,58,2.0,5.0,75,0.00,,,0.00,weatherlink.com 1.10,2013-04-19 16:20:00,
2013-04-19 12:35:00,70.6,62.0,29.86,East,94,5.0,9.0,73,0.00,,,0.00,weatherlink.com 1.10,2013-04-19 16:35:00,
2013-04-19 12:50:00,69.7,61.0,29.85,ENE,68,3.0,8.0,73,0.00,,,0.00,weatherlink.com 1.10,2013-04-19 16:50:00,
2013-04-19 13:05:00,69.0,61.0,29.84,NW,310,1.0,12.0,75,0.00,,,0.00,weatherlink.com 1.10,2013-04-19 17:05:00,
2013-04-19 13:20:00,69.9,61.0,29.84,East,88,2.0,6.0,74,0.00,,,0.00,weatherlink.com 1.10,2013-04-19 17:20:00,
2013-04-19 13:35:00,71.7,62.0,29.83,ESE,105,1.0,10.0,72,0.00,,,0.00,weatherlink.com 1.10,2013-04-19 17:35:00,
2013-04-19 13:50:00,69.6,61.0,29.83,ENE,64,2.0,9.0,74,0.00,,,0.00,weatherlink.com 1.10,2013-04-19 17:50:00,
2013-04-19 14:05:00,69.0,61.0,29.82,ENE,72,4.0,9.0,76,0.00,,,0.00,weatherlink.com 1.10,2013-04-19 18:05:00,
2013-04-19 14:20:00,69.1,62.0,29.81,East,86,4.0,5.0,78,0.00,,,0.00,weatherlink.com 1.10,2013-04-19 18:20:00,
2013-04-19 14:35:00,70.6,62.0,29.80,NE,44,2.0,9.0,75,0.00,,,0.00,weatherlink.com 1.10,2013-04-19 18:35:00,
2013-04-19 14:50:00,70.7,63.0,29.79,NNE,33,2.0,14.0,76,0.00,,,0.00,weatherlink.com 1.10,2013-04-19 18:50:00,
2013-04-19 15:06:00,70.0,63.0,29.78,ENE,61,2.0,11.0,77,0.00,,,0.00,weatherlink.com 1.10,2013-04-19 19:06:00,
2013-04-19 15:20:00,69.9,62.0,29.77,ENE,74,4.0,8.0,77,0.00,,,0.00,weatherlink.com 1.10,2013-04-19 19:20:00,
2013-04-19 15:35:00,70.9,63.0,29.75,NE,51,3.0,8.0,77,0.00,,,0.00,weatherlink.com 1.10,2013-04-19 19:35:00,
2013-04-19 15:50:00,72.0,63.0,29.74,ESE,105,1.0,9.0,72,0.00,,,0.00,weatherlink.com 1.10,2013-04-19 19:50:00,
2013-04-19 16:05:00,71.7,62.0,29.73,NE,56,3.0,9.0,72,0.00,,,0.00,weatherlink.com 1.10,2013-04-19 20:05:00,
2013-04-19 16:20:00,71.8,62.0,29.72,ENE,65,3.0,10.0,72,0.00,,,0.00,weatherlink.com 1.10,2013-04-19 20:20:00,
2013-04-19 16:35:00,70.4,61.0,29.72,ENE,63,6.0,7.0,73,0.00,,,0.00,weatherlink.com 1.10,2013-04-19 20:35:00,
2013-04-19 16:50:00,68.8,61.0,29.72,ENE,71,2.0,6.0,76,0.00,,,0.00,weatherlink.com 1.10,2013-04-19 20:50:00,
2013-04-19 17:06:00,67.8,61.0,29.72,East,83,3.0,7.0,79,0.00,,,0.00,weatherlink.com 1.10,2013-04-19 21:06:00,
2013-04-19 17:21:00,66.9,60.0,29.70,East,81,2.0,5.0,79,0.00,,,0.00,weatherlink.com 1.10,2013-04-19 21:21:00,
2013-04-19 17:36:00,66.2,60.0,29.71,NE,54,4.0,7.0,81,0.00,,,0.00,weatherlink.com 1.10,2013-04-19 21:36:00,
2013-04-19 17:51:00,66.6,61.0,29.71,ESE,119,3.0,9.0,81,0.00,,,0.00,weatherlink.com 1.10,2013-04-19 21:51:00,
2013-04-19 18:06:00,67.1,60.0,29.70,East,91,2.0,7.0,79,0.00,,,0.00,weatherlink.com 1.10,2013-04-19 22:06:00,
2013-04-19 18:21:00,67.0,61.0,29.70,East,98,4.0,5.0,80,0.00,,,0.00,weatherlink.com 1.10,2013-04-19 22:21:00,
2013-04-19 18:36:00,66.9,61.0,29.70,ENE,70,2.0,8.0,80,0.00,,,0.00,weatherlink.com 1.10,2013-04-19 22:36:00,
2013-04-19 18:51:00,66.6,60.0,29.68,ENE,63,3.0,7.0,80,0.00,,,0.00,weatherlink.com 1.10,2013-04-19 22:51:00,
2013-04-19 19:06:00,65.7,60.0,29.68,ESE,123,2.0,7.0,82,0.00,,,0.00,weatherlink.com 1.10,2013-04-19 23:06:00,
2013-04-19 19:21:00,65.0,60.0,29.68,ENE,58,5.0,8.0,84,0.00,,,0.00,weatherlink.com 1.10,2013-04-19 23:21:00,
2013-04-19 19:36:00,64.2,59.0,29.68,ESE,103,2.0,7.0,84,0.00,,,0.00,weatherlink.com 1.10,2013-04-19 23:36:00,
2013-04-19 19:51:00,63.5,59.0,29.68,East,96,1.0,-999.0,85,-99.99,,,0.00,weatherlink.com 1.10,2013-04-19 23:51:00,
2013-04-19 20:06:00,62.9,59.0,29.67,ENE,60,2.0,4.0,86,0.00,,,0.00,weatherlink.com 1.10,2013-04-20 00:06:00,
2013-04-19 20:21:00,62.7,59.0,29.67,SE,138,1.0,4.0,88,0.00,,,0.00,weatherlink.com 1.10,2013-04-20 00:21:00,
2013-04-19 20:36:00,62.5,60.0,29.67,East,87,1.0,4.0,90,0.00,,,0.00,weatherlink.com 1.10,2013-04-20 00:36:00,
2013-04-19 20:51:00,62.8,60.0,29.67,East,100,2.0,4.0,90,0.00,,,0.00,weatherlink.com 1.10,2013-04-20 00:51:00,
2013-04-19 21:06:00,64.0,61.0,29.68,ESE,110,4.0,8.0,90,0.00,,,0.00,weatherlink.com 1.10,2013-04-20 01:06:00,
2013-04-19 21:21:00,64.6,62.0,29.68,NE,39,2.0,8.0,90,0.00,,,0.00,weatherlink.com 1.10,2013-04-20 01:21:00,
2013-04-19 21:36:00,65.9,63.0,29.67,SE,128,4.0,12.0,89,0.00,,,0.00,weatherlink.com 1.10,2013-04-20 01:36:00,
2013-04-19 21:51:00,66.3,63.0,29.67,ESE,117,1.0,11.0,88,0.00,,,0.00,weatherlink.com 1.10,2013-04-20 01:51:00,
2013-04-19 22:06:00,66.0,63.0,29.66,East,101,3.0,12.0,90,0.02,,,0.02,weatherlink.com 1.10,2013-04-20 02:06:00,
2013-04-19 22:21:00,65.6,63.0,29.68,SSE,158,2.0,7.0,92,0.12,,,0.12,weatherlink.com 1.10,2013-04-20 02:21:00,
2013-04-19 22:36:00,64.6,63.0,29.71,SSW,197,5.0,10.0,95,0.28,,,0.28,weatherlink.com 1.10,2013-04-20 02:36:00,
2013-04-19 22:51:00,63.8,61.0,29.70,SW,232,3.0,11.0,91,0.34,,,0.34,weatherlink.com 1.10,2013-04-20 02:51:00,
2013-04-19 23:06:00,63.2,61.0,29.68,SW,232,0.0,3.0,92,0.33,,,0.35,weatherlink.com 1.10,2013-04-20 03:06:00,
2013-04-19 23:21:00,62.8,61.0,29.68,SSE,155,0.0,0.0,93,0.24,,,0.36,weatherlink.com 1.10,2013-04-20 03:21:00,
2013-04-19 23:37:00,62.6,61.0,29.68,ESE,112,0.0,0.0,94,0.08,,,0.37,weatherlink.com 1.10,2013-04-20 03:37:00,
2013-04-19 23:51:00,62.2,61.0,29.68,NNW,340,3.0,3.0,95,0.04,,,0.38,weatherlink.com 1.10,2013-04-20 03:51:00,